User: anonymous   Login
Location: Valley View Observatory
(41.0081°N, 76.5874°W)
Time: 23:09:40
(UTC-04:00)
Language:

Cosmos 2237 Rocket - Orbit

View from above orbital plane
View from above orbital plane
View from above satellite
View from above satellite

Ground track
Ground track

The orbit data is extracted from the following two-line orbital elements,

1 22566U 93016B   15091.07829215 -.00000147  00000-0 -51572-4 0  9998
2 22566 071.0094 323.1182 0012779 280.9824 078.9861 14.14896054136969
Epoch (UTC): 01 April 2015 01:52:44
Eccentricity: 0.0012779
inclination: 71.0094°
perigee height: 833 km
apogee height: 852 km
right ascension of ascending node: 323.1182°
argument of perigee: 280.9824°
revolutions per day: 14.14896054
mean anomaly at epoch: 78.9861°
orbit number at epoch: 13696

The dashed part of the orbit path shows where the satellite is in the earth's shadow,  

DLR